Temperature
7 7 6 6 7 7 6 6 6 7 8 9 9 9 9 10 10 10 10 9 9 8 8 7 6 5 5 4 4 4 4 4 4 4 4 4 4 4 4 4 4 4 4 4
6 7 7 7 6 6 7 7 7 7 8 9 10 10 10 10 10 10 10 9 9 8 7 6 5 5 4 4 4 4 4 4 4 3 3 3 3 3 3 3 3 3 3 3
5 6 6 5 6 7 6 7 7 7 8 9 9 8 9 10 10 10 10 9 9 8 7 6 5 4 4 3 3 3 3 3 3 3 2 2 2 2 2 2 2 2 2 2
4 5 5 6 7 7 7 7 7 8 8 8 9 10 11 11 11 10 10 9 8 7 6 5 5 4 3 3 3 2 2 2 2 2 1 1 1 1 1 1 1 1 1 1
4 4 5 7 8 7 6 6 7 7 8 9 9 9 9 10 10 10 10 9 8 7 6 5 4 4 3 3 2 2 2 2 1 1 1 1 1 1 0 1 1 1 0 0
5 5 6 7 9 9 8 7 8 8 7 8 8 7 7 10 9 9 9 8 7 7 6 5 4 4 3 3 2 2 2 2 1 1 1 1 1 0 0 0 0 0 -0 -0
5 5 5 7 8 9 7 7 8 8 8 8 8 8 9 9 9 8 8 8 7 6 6 5 4 4 3 3 3 3 2 2 1 1 1 1 0 0 0 0 0 -0 -0 -1
5 5 5 7 8 7 7 8 8 8 9 9 9 9 9 9 8 8 7 7 7 6 6 5 4 4 4 3 3 3 2 2 2 1 1 1 0 0 0 -0 -0 -0 -1 -1
5 6 7 8 8 9 9 9 9 9 9 9 9 9 8 8 8 7 7 6 6 6 5 5 5 4 4 4 3 3 2 2 2 1 1 1 0 0 -0 -0 -0 -1 -1 -1
5 6 7 8 9 9 9 9 9 9 9 9 8 8 8 7 7 7 7 6 6 5 5 5 5 5 4 3 3 3 2 2 2 1 1 1 0 0 -0 -0 -1 -1 -1 -1
5 6 7 8 9 9 9 9 9 8 8 8 8 8 7 7 7 7 6 6 6 6 5 5 5 4 4 4 3 3 2 2 2 1 1 1 0 0 -0 -1 -1 -1 -1 -1
5 7 6 8 9 8 8 8 8 8 8 7 7 7 7 7 6 6 6 6 6 5 5 5 5 4 4 4 3 3 2 2 2 1 1 1 0 0 -0 -1 -1 -1 -1 -2
7 8 8 8 8 8 8 8 7 7 7 7 6 6 6 6 6 6 5 5 5 5 5 5 4 4 4 3 3 3 2 2 2 1 1 1 0 -0 -0 -1 -1 -1 -1 -2
6 6 6 6 7 7 7 7 6 6 6 6 6 6 5 5 5 5 5 5 5 4 4 4 4 4 4 3 3 3 2 2 1 1 1 0 0 -0 -1 -1 -1 -1 -2 -2
5 6 6 6 6 6 6 6 5 5 5 5 5 4 4 4 4 4 4 4 4 4 4 4 4 4 3 3 2 2 2 2 1 1 0 0 -0 -0 -1 -1 -1 -1 -2 -2
4 5 5 5 5 5 5 4 4 4 4 4 4 3 3 3 3 4 4 4 4 4 4 3 3 3 3 2 2 2 1 1 1 0 0 -0 -0 -1 -1 -1 -1 -2 -2 -2
3 3 3 3 3 3 3 3 3 3 3 3 3 3 3 3 3 3 3 3 3 3 3 3 3 2 2 2 1 1 1 1 0 0 -0 -0 -1 -1 -1 -2 -2 -2 -2 -2
2 3 3 3 2 2 2 2 2 2 2 2 2 2 2 2 2 2 2 2 3 3 2 2 2 2 1 1 1 1 1 0 0 -0 -0 -1 -1 -1 -2 -2 -2 -2 -2 -3
1 1 1 1 1 1 1 1 1 1 1 1 1 1 1 1 1 2 2 2 2 2 2 2 1 1 1 1 1 0 0 -0 -1 -1 -1 -1 -2 -2 -2 -2 -2 -3 -3 -3
-0 -0 0 0 0 1 1 1 1 1 1 1 1 1 1 1 1 1 1 1 1 1 1 1 1 1 1 0 -0 -0 -0 -1 -1 -1 -2 -2 -2 -3 -3 -3 -3 -3 -3 -3
-1 -1 -1 -0 -0 -0 -0 0 0 0 0 0 1 0 0 0 0 0 0 0 0 0 0 0 0 0 0 -0 -1 -1 -1 -1 -1 -2 -2 -3 -3 -3 -3 -3 -3 -3 -3 -3
-1 -1 -1 -1 -1 -1 -0 -0 -0 -0 -0 -0 -0 -0 -0 -0 -0 -0 -0 -0 -0 -0 -0 -0 -0 -0 -0 -1 -1 -1 -2 -2 -2 -2 -3 -3 -3 -3 -4 -4 -3 -3 -3 -4
-2 -1 -1 -1 -1 -1 -1 -1 -1 -1 -1 -1 -1 -1 -1 -1 -1 -1 -1 -1 -1 -1 -1 -1 -1 -1 -1 -1 -2 -2 -2 -3 -3 -3 -3 -3 -4 -4 -4 -4 -4 -4 -4 -4
-2 -1 -1 -1 -1 -1 -1 -1 -1 -1 -1 -1 -1 -1 -1 -1 -1 -2 -2 -2 -2 -2 -1 -1 -1 -2 -2 -2 -3 -3 -3 -3 -4 -4 -4 -4 -4 -4 -4 -4 -4 -4 -4 -4
-2 -1 -1 -1 -1 -1 -1 -1 -1 -1 -2 -2 -2 -2 -2 -2 -2 -2 -2 -2 -2 -2 -2 -2 -2 -2 -2 -3 -3 -3 -4 -4 -4 -4 -4 -4 -4 -4 -4 -4 -4 -4 -5 -5
-1 -1 -1 -1 -1 -1 -1 -2 -2 -2 -2 -2 -2 -2 -2 -2 -2 -2 -2 -2 -2 -2 -2 -2 -3 -3 -3 -3 -3 -4 -4 -4 -4 -4 -4 -4 -4 -5 -5 -5 -5 -5 -5 -5
-2 -2 -2 -2 -2 -2 -2 -2 -2 -2 -2 -2 -2 -2 -3 -3 -3 -3 -3 -3 -3 -3 -3 -3 -3 -3 -3 -3 -4 -4 -4 -4 -4 -4 -4 -4 -5 -5 -5 -5 -5 -5 -5 -5
Wind_Speed
3 2 6 6 9 12 12 10 9 8 8 9 9 10 10 9 9 9 8 8 9 8 6 6 5 4 4 4 4 4 5 5 5 5 6 6 7 7 7 8 9 8 9 9
1 1 3 4 8 12 13 11 10 7 8 7 7 6 7 9 10 10 10 9 9 8 8 7 6 5 5 4 4 4 5 5 5 5 6 6 6 7 7 8 8 8 9 9
2 1 2 7 11 14 9 9 11 14 11 4 6 9 11 10 10 11 10 9 10 9 8 8 7 6 6 5 4 5 4 4 4 5 5 6 6 7 7 7 7 8 8 8
2 2 6 8 4 8 11 11 11 8 7 8 9 8 7 8 10 10 10 10 9 8 8 7 6 6 6 5 5 5 4 4 4 5 5 5 6 6 6 5 6 6 7 7
3 3 8 8 4 6 7 8 11 13 9 7 5 4 2 4 6 8 8 7 8 8 7 7 7 7 7 6 5 5 5 4 4 5 5 5 5 5 4 4 5 5 5 6
3 3 5 6 3 3 4 6 6 11 10 8 9 6 6 5 5 6 7 7 8 8 7 8 8 8 7 7 6 5 5 5 5 4 5 5 4 4 3 4 4 4 4 4
4 4 7 7 2 4 3 6 5 5 8 9 9 6 4 7 5 6 6 7 8 9 8 8 8 8 8 7 6 6 6 5 5 5 4 4 4 3 3 3 3 3 2 2
5 6 8 4 5 5 6 2 2 3 4 6 5 5 6 6 6 7 7 7 8 8 7 7 9 9 8 8 7 7 6 6 5 5 4 4 4 3 3 3 3 2 1 0
8 9 6 4 7 5 4 3 2 3 4 6 6 5 5 5 6 7 7 8 7 8 8 8 9 9 10 8 8 8 7 6 5 5 4 4 4 4 3 3 3 2 2 2
4 7 6 5 4 3 3 4 3 4 4 5 5 5 5 5 6 7 7 8 8 9 9 9 9 10 9 9 9 9 8 7 6 6 5 4 3 3 3 4 3 3 3 3
5 6 4 4 5 4 2 3 4 3 3 3 4 4 5 5 6 7 7 8 9 10 11 11 10 10 9 10 10 9 8 7 7 6 6 5 4 4 4 4 5 5 4 4
6 6 5 5 4 3 4 3 4 4 2 2 1 2 3 4 5 6 7 8 9 10 10 10 10 11 10 11 11 10 8 8 6 6 5 5 4 2 5 5 5 6 7 6
5 3 2 2 1 2 4 3 3 3 2 1 1 1 2 3 3 4 5 7 10 11 11 10 11 11 11 12 12 12 10 8 6 6 6 6 5 5 4 3 5 5 6 6
2 1 1 2 2 3 4 4 4 4 3 2 1 1 2 2 2 4 5 7 7 8 9 10 11 11 11 12 12 12 10 10 9 7 7 6 6 6 5 4 3 4 5 7
3 1 2 2 3 4 3 3 4 3 3 3 3 3 3 3 4 5 5 4 5 6 7 8 10 10 10 11 12 11 10 8 7 7 6 6 6 6 5 5 5 4 3 4
1 2 3 4 4 3 3 3 2 1 2 2 3 4 5 5 5 5 4 3 4 6 7 8 9 8 9 10 11 9 9 12 10 7 7 6 6 6 6 5 5 5 5 4
1 2 2 2 2 2 2 2 1 1 2 3 4 5 5 5 5 5 5 4 5 5 5 6 7 6 8 10 10 8 7 9 12 8 7 7 6 7 6 6 5 5 5 6
1 1 1 2 2 3 2 2 2 2 2 4 5 5 5 4 5 5 5 4 3 3 3 4 4 5 7 8 8 7 7 7 7 7 7 6 6 6 6 6 6 6 5 5
5 4 5 4 3 3 2 2 2 2 3 4 4 4 4 4 5 5 4 3 3 4 4 3 4 5 6 8 8 6 7 7 7 6 6 9 8 6 6 6 6 6 5 5
5 4 4 4 4 3 2 2 3 3 4 4 4 4 4 5 5 5 4 3 3 3 3 3 3 4 5 7 9 6 7 8 8 7 7 6 7 6 6 7 6 6 6 6
3 4 4 3 3 3 3 3 3 3 4 4 4 4 5 5 5 4 3 3 4 4 3 3 2 3 4 5 8 6 7 7 7 7 7 7 7 7 7 7 6 6 6 6
2 2 2 2 2 2 2 3 3 3 4 4 4 4 5 5 5 5 3 3 4 6 4 2 2 4 5 6 5 6 7 7 7 6 7 7 7 7 7 7 7 6 6 6
2 2 2 2 2 2 2 2 3 3 3 4 4 4 4 5 4 3 4 4 4 7 4 3 5 6 7 5 5 6 7 7 7 7 7 7 7 7 7 7 6 6 6 6
3 3 3 2 2 2 3 3 3 3 3 4 4 4 4 4 4 2 3 8 9 8 4 5 7 7 7 3 4 5 6 6 6 6 7 6 6 6 6 6 6 6 6 7
5 5 4 4 4 4 4 3 3 3 4 3 4 4 3 3 3 4 5 6 8 8 4 6 7 7 3 3 4 5 5 6 6 6 6 6 6 6 6 6 6 6 6 6
5 5 5 5 5 4 3 3 3 3 3 3 4 3 3 3 4 4 4 5 6 8 5 4 4 4 2 3 4 5 5 6 7 7 6 6 7 7 6 6 8 6 6 6
5 5 4 5 5 5 4 4 4 4 3 3 4 3 3 4 4 4 5 4 5 4 4 4 3 3 2 2 3 4 4 5 5 5 5 6 6 6 6 7 6 6 5 6
Wind_Direction
223 192 162 193 198 196 204 206 203 223 221 226 209 191 185 181 176 175 179 180 178 173 167 157 146 136 123 104 84 85 83 77 70 65 60 57 53 52 51 51 51 48 49 46
306 233 201 236 223 210 215 216 223 237 247 238 213 189 183 184 182 188 192 190 182 174 169 167 162 152 136 118 104 98 92 84 77 74 68 64 62 60 59 56 53 52 50 50
251 295 11 266 227 212 211 209 203 224 232 208 186 192 192 192 192 196 196 189 182 177 174 170 166 154 145 134 121 110 103 93 86 85 79 72 72 69 64 62 60 56 52 52
157 104 240 246 237 204 217 230 212 218 213 201 205 202 198 192 192 199 192 183 177 168 163 159 152 145 139 133 128 124 115 106 103 102 94 87 81 76 69 65 63 59 55 50
163 228 275 284 249 185 196 250 221 217 215 204 182 133 242 219 197 194 182 169 164 159 154 152 153 149 142 139 138 135 130 123 119 116 111 104 96 91 84 81 73 66 58 51
183 226 253 267 291 173 139 268 249 207 201 184 154 180 231 194 159 150 144 143 147 145 144 154 160 153 149 152 152 151 145 136 129 126 126 122 116 107 100 98 92 84 67 50
201 241 267 261 253 113 169 258 305 197 182 171 182 197 180 145 139 141 139 143 147 150 158 166 162 158 160 162 167 159 150 145 140 141 140 136 130 126 126 118 106 96 82 32
186 219 255 251 149 184 222 276 26 101 135 143 145 126 132 146 150 154 153 154 158 162 168 169 167 165 170 178 171 159 157 158 158 160 160 149 145 145 145 143 135 138 136 316
196 218 242 221 206 225 184 165 138 115 121 128 130 145 157 168 172 176 176 175 172 172 174 177 179 177 181 183 171 167 166 170 171 169 164 159 164 167 165 169 175 196 203 228
239 259 254 243 229 222 187 174 155 140 137 140 151 165 178 185 188 189 189 187 181 179 187 193 191 189 187 178 175 174 177 180 178 174 170 167 168 171 171 181 189 199 208 221
244 269 285 259 221 208 175 136 126 118 131 148 158 176 189 199 201 200 199 194 190 195 201 201 193 195 188 180 178 182 185 185 183 181 175 175 178 190 189 203 196 195 205 205
229 234 218 245 242 186 163 160 148 138 123 91 136 205 214 221 219 210 205 197 199 204 206 202 197 199 192 184 182 183 188 190 187 183 182 179 178 198 222 212 214 208 202 202
238 258 223 216 73 133 147 143 129 127 132 127 346 275 246 239 234 225 217 207 209 210 208 202 199 201 195 188 186 189 192 190 186 186 185 186 186 190 206 235 239 233 230 234
302 91 166 199 175 119 120 115 104 87 71 58 11 332 299 272 265 249 238 228 219 211 207 203 203 205 195 188 189 194 192 193 190 191 190 190 193 196 197 204 226 254 254 252
312 282 201 154 115 101 100 100 93 70 36 18 8 349 326 299 280 270 264 251 223 214 211 205 209 208 189 187 190 193 192 192 191 188 188 191 191 192 198 206 215 228 243 264
314 73 100 117 121 105 99 103 108 62 360 342 337 325 312 295 285 280 276 251 222 225 221 214 217 206 185 187 189 192 195 195 186 185 186 188 189 193 199 206 214 222 231 236
179 169 149 165 152 116 100 92 96 33 348 333 322 315 311 307 301 295 289 274 249 243 230 221 221 197 185 188 189 192 190 192 190 188 192 192 193 198 201 205 213 223 231 235
26 68 109 137 145 122 93 67 44 14 345 323 322 323 321 313 301 298 296 294 286 279 261 242 218 191 189 190 191 188 187 188 190 193 193 194 198 198 198 207 216 226 233 243
41 58 69 74 82 94 84 48 8 349 340 332 328 322 319 317 312 309 310 302 282 277 281 260 224 195 195 196 188 186 186 189 191 193 190 202 205 200 203 210 218 223 228 233
41 46 57 60 56 60 53 24 8 359 352 345 340 335 331 327 321 315 311 293 277 277 282 261 226 210 202 200 195 191 192 194 196 194 192 198 201 205 209 216 220 224 229 233
32 38 44 48 45 39 32 17 3 353 350 352 350 337 327 323 325 323 318 307 312 314 303 278 245 222 204 204 201 194 194 196 198 196 196 201 206 210 215 218 221 226 230 233
360 14 14 11 9 7 5 360 350 341 344 344 339 332 329 329 331 325 305 295 309 318 315 278 258 241 228 215 200 196 197 199 200 197 198 201 205 213 220 221 223 227 229 232
299 300 301 310 312 308 320 335 332 325 324 325 325 325 321 317 316 317 316 318 316 314 313 278 275 265 249 220 199 199 200 202 203 202 202 204 209 215 220 221 223 226 229 234
265 266 270 283 293 287 290 298 308 309 307 306 310 316 316 316 315 301 294 315 323 319 307 295 291 276 258 211 196 197 201 205 207 206 205 207 212 216 219 221 225 228 231 236
261 258 255 255 257 258 264 281 295 299 305 303 307 312 311 297 290 302 308 311 322 325 312 307 304 292 267 211 200 202 205 210 211 208 208 209 213 216 220 222 225 229 232 235
253 253 251 246 245 249 251 254 265 276 285 293 299 297 303 304 302 305 308 313 316 323 321 306 302 296 272 226 211 210 212 222 229 221 212 212 216 218 221 224 227 229 233 236
255 253 254 258 252 240 236 237 248 261 263 269 282 288 297 305 308 312 314 314 317 317 313 310 308 300 281 248 228 222 220 219 219 218 215 216 217 220 222 224 227 229 231 236
Height
1481 1479 1482 1483 1482 1483 1486 1486 1489 1483 1480 1474 1472 1472 1474 1476 1479 1481 1483 1485 1486 1486 1487 1487 1486 1486 1486 1485 1485 1484 1484 1483 1483 1482 1482 1481 1480 1480 1479 1478 1477 1476 1475 1473
1482 1479 1479 1480 1478 1479 1479 1479 1479 1477 1475 1469 1469 1471 1472 1474 1476 1478 1480 1481 1482 1483 1483 1483 1484 1483 1483 1483 1482 1482 1482 1481 1481 1481 1480 1479 1479 1478 1478 1477 1476 1475 1474 1473
1488 1481 1480 1482 1472 1471 1472 1469 1471 1472 1468 1466 1467 1468 1469 1471 1473 1474 1476 1478 1479 1480 1480 1481 1481 1481 1481 1480 1480 1480 1480 1480 1480 1479 1479 1479 1478 1478 1478 1477 1476 1476 1475 1474
1488 1486 1489 1470 1461 1462 1463 1462 1462 1461 1461 1462 1463 1464 1466 1468 1470 1471 1473 1474 1476 1477 1477 1478 1478 1479 1479 1479 1479 1479 1479 1479 1479 1479 1479 1479 1479 1478 1478 1478 1477 1476 1476 1475
1488 1488 1480 1466 1458 1459 1462 1460 1455 1456 1457 1459 1461 1463 1465 1466 1468 1469 1470 1472 1473 1474 1475 1476 1476 1477 1477 1477 1478 1478 1478 1478 1478 1479 1479 1479 1479 1479 1479 1478 1478 1477 1476 1476
1482 1482 1476 1463 1455 1454 1458 1458 1450 1450 1452 1456 1459 1465 1464 1463 1465 1466 1468 1469 1470 1471 1473 1473 1474 1475 1476 1476 1477 1477 1477 1478 1478 1479 1479 1480 1480 1480 1479 1479 1478 1478 1477 1476
1480 1478 1472 1459 1455 1456 1464 1458 1449 1447 1449 1452 1455 1458 1460 1461 1462 1464 1466 1467 1468 1469 1471 1472 1473 1473 1474 1475 1476 1477 1477 1478 1478 1479 1479 1480 1480 1480 1479 1479 1479 1478 1477 1476
1475 1476 1472 1455 1455 1457 1455 1451 1449 1448 1449 1452 1454 1456 1458 1460 1461 1463 1464 1465 1466 1468 1469 1470 1471 1472 1473 1474 1475 1476 1477 1477 1478 1479 1479 1479 1479 1479 1479 1479 1478 1478 1477 1476
1466 1464 1455 1452 1452 1451 1451 1451 1451 1450 1451 1453 1454 1456 1458 1459 1460 1461 1463 1464 1465 1466 1467 1468 1469 1470 1471 1473 1473 1475 1476 1477 1477 1478 1478 1479 1479 1479 1479 1478 1477 1477 1476 1474
1459 1455 1451 1450 1450 1451 1451 1451 1451 1452 1453 1454 1455 1456 1457 1458 1459 1460 1461 1462 1462 1463 1464 1465 1466 1468 1469 1471 1472 1473 1474 1475 1476 1476 1477 1477 1477 1477 1477 1477 1476 1475 1474 1472
1455 1451 1449 1448 1449 1449 1450 1451 1451 1452 1452 1453 1454 1455 1456 1456 1457 1457 1458 1459 1459 1460 1461 1462 1464 1465 1466 1468 1469 1470 1472 1473 1474 1474 1475 1475 1475 1475 1475 1475 1474 1473 1472 1470
1453 1448 1448 1447 1446 1448 1448 1449 1450 1451 1451 1452 1452 1453 1453 1454 1454 1454 1455 1455 1456 1456 1457 1459 1460 1461 1463 1464 1466 1467 1468 1470 1471 1472 1472 1473 1473 1473 1472 1472 1471 1470 1469 1467
1447 1446 1445 1445 1445 1446 1447 1448 1449 1449 1450 1450 1450 1450 1450 1450 1451 1451 1451 1451 1451 1452 1453 1454 1455 1457 1459 1460 1462 1463 1465 1466 1467 1468 1469 1470 1470 1470 1470 1469 1468 1467 1466 1464
1445 1445 1444 1444 1444 1444 1445 1446 1447 1447 1448 1448 1448 1447 1447 1447 1447 1446 1446 1447 1447 1447 1448 1449 1450 1452 1454 1456 1457 1458 1460 1462 1463 1464 1465 1466 1466 1466 1466 1466 1465 1464 1463 1461
1443 1443 1443 1442 1442 1443 1443 1444 1444 1445 1445 1445 1444 1444 1443 1443 1442 1442 1442 1442 1442 1442 1443 1444 1445 1446 1449 1450 1451 1453 1455 1457 1458 1460 1461 1461 1462 1462 1462 1462 1461 1460 1459 1458
1441 1440 1440 1440 1440 1441 1441 1442 1442 1442 1442 1442 1441 1441 1440 1439 1438 1438 1438 1437 1437 1437 1438 1438 1439 1441 1443 1444 1445 1447 1449 1451 1453 1454 1455 1456 1457 1457 1458 1457 1457 1456 1455 1454
1440 1439 1439 1439 1439 1439 1439 1439 1440 1439 1439 1439 1438 1437 1436 1435 1434 1434 1433 1433 1432 1432 1433 1433 1434 1435 1436 1438 1439 1441 1443 1445 1447 1448 1449 1450 1451 1452 1453 1453 1452 1452 1451 1450
1439 1438 1438 1438 1437 1437 1438 1438 1437 1437 1437 1436 1435 1434 1433 1431 1430 1429 1429 1428 1428 1428 1428 1428 1429 1429 1430 1431 1433 1435 1436 1438 1440 1442 1443 1445 1446 1447 1447 1447 1447 1447 1446 1445
1437 1437 1436 1436 1436 1436 1436 1436 1436 1435 1434 1433 1432 1431 1429 1428 1427 1426 1425 1424 1424 1423 1424 1424 1424 1424 1425 1425 1427 1428 1430 1431 1433 1435 1437 1438 1440 1441 1441 1442 1442 1442 1441 1440
1437 1436 1436 1436 1436 1436 1436 1435 1434 1434 1432 1431 1430 1428 1427 1425 1424 1423 1422 1421 1420 1419 1419 1419 1419 1419 1419 1420 1421 1422 1423 1425 1426 1428 1430 1432 1433 1434 1436 1436 1437 1436 1436 1435
1438 1437 1436 1436 1436 1435 1435 1434 1433 1432 1431 1429 1428 1426 1425 1423 1422 1420 1418 1418 1417 1416 1415 1415 1414 1414 1414 1415 1415 1416 1417 1418 1420 1422 1423 1425 1427 1428 1430 1431 1431 1431 1430 1429
1438 1438 1437 1436 1436 1435 1434 1433 1432 1431 1429 1428 1426 1425 1423 1421 1419 1418 1416 1415 1414 1413 1412 1411 1410 1410 1409 1409 1410 1410 1411 1412 1414 1416 1417 1419 1421 1422 1424 1425 1426 1426 1425 1424
1439 1438 1437 1436 1436 1434 1433 1432 1431 1429 1428 1426 1425 1423 1421 1419 1417 1416 1414 1413 1411 1409 1408 1407 1406 1405 1405 1404 1404 1405 1406 1407 1408 1410 1412 1414 1416 1417 1418 1420 1420 1420 1420 1419
1438 1438 1437 1436 1435 1433 1432 1431 1429 1428 1426 1424 1423 1421 1419 1417 1416 1414 1412 1410 1408 1406 1405 1403 1402 1401 1400 1400 1400 1400 1401 1402 1404 1405 1407 1409 1411 1412 1413 1414 1414 1414 1414 1413
1437 1436 1435 1434 1433 1432 1431 1429 1428 1426 1424 1423 1421 1419 1417 1415 1414 1411 1409 1407 1405 1403 1402 1400 1399 1398 1397 1396 1396 1397 1397 1398 1400 1401 1403 1404 1406 1407 1408 1409 1409 1409 1408 1408
1433 1432 1432 1431 1430 1429 1428 1427 1425 1424 1422 1421 1419 1417 1415 1413 1411 1409 1407 1405 1403 1401 1399 1397 1396 1395 1394 1393 1393 1393 1394 1395 1396 1397 1399 1400 1401 1402 1403 1403 1403 1403 1403 1402
1429 1428 1427 1427 1426 1425 1424 1423 1422 1421 1419 1418 1416 1414 1413 1410 1408 1406 1404 1402 1400 1398 1396 1394 1393 1392 1391 1390 1390 1390 1390 1391 1392 1393 1394 1395 1396 1397 1397 1397 1398 1397 1397 1396